• In Hungary
  • List of Countries
  • For 7 days
  • Water Temperature
  • Satellite Maps
  • Weather Map
  • News
  • Weather Widgets
  • user-avatar
    Login

    Hourly Weather Modlna

    Today, 17 July, Tuesday

    Time Temperature Precipitation Wind Pressure Humidity
    00:00 +18°C° 0.4 mm 3 mps 744 mmHg 94%
    01:00 +18°C° 0 mm 2 mps 743 mmHg 96%
    02:00 +18°C° 1.5 mm 2 mps 743 mmHg 96%
    03:00 +18°C° 1.5 mm 2 mps 743 mmHg 97%
    04:00 +18°C° 1.5 mm 3 mps 743 mmHg 97%
    05:00 +18°C° 1.6 mm 3 mps 742 mmHg 96%
    06:00 +19°C° 1.6 mm 3 mps 742 mmHg 95%
    07:00 +19°C° 0 mm 4 mps 742 mmHg 93%
    08:00 +19°C° 1.5 mm 4 mps 742 mmHg 91%
    09:00 +20°C° 1.5 mm 4 mps 742 mmHg 89%
    10:00 +20°C° 1.5 mm 4 mps 742 mmHg 86%
    11:00 +21°C° 0.7 mm 4 mps 742 mmHg 83%
    12:00 +22°C° 0.7 mm 4 mps 741 mmHg 79%
    13:00 +23°C° 0.7 mm 4 mps 741 mmHg 75%
    14:00 +23°C° 0.7 mm 4 mps 741 mmHg 76%
    15:00 +23°C° 0.7 mm 4 mps 741 mmHg 76%
    16:00 +23°C° 0.7 mm 5 mps 741 mmHg 77%
    17:00 +23°C° 0.4 mm 4 mps 741 mmHg 81%
    18:00 +22°C° 0.4 mm 4 mps 741 mmHg 85%
    19:00 +21°C° 0.4 mm 3 mps 741 mmHg 89%
    20:00 +20°C° 0.1 mm 3 mps 741 mmHg 91%
    21:00 +20°C° 0.1 mm 3 mps 741 mmHg 94%
    22:00 +19°C° 0.1 mm 4 mps 741 mmHg 96%
    23:00 +19°C° 0.3 mm 4 mps 741 mmHg 96%

    Tomorrow, 18 July, Wednesday

    Time Temperature Precipitation Wind Pressure Humidity
    00:00 +19°C° 0.3 mm 4 mps 741 mmHg 97%
    01:00 +19°C° 0.3 mm 4 mps 741 mmHg 97%
    02:00 +19°C° 0.3 mm 3 mps 741 mmHg 97%
    03:00 +19°C° 0.3 mm 3 mps 741 mmHg 97%
    04:00 +19°C° 0.3 mm 3 mps 741 mmHg 97%
    05:00 +20°C° 0.1 mm 4 mps 741 mmHg 96%
    06:00 +20°C° 0.1 mm 4 mps 741 mmHg 94%
    07:00 +21°C° 0.1 mm 4 mps 741 mmHg 92%
    08:00 +22°C° 0.2 mm 4 mps 741 mmHg 88%
    09:00 +23°C° 0.2 mm 4 mps 741 mmHg 84%
    10:00 +25°C° 0.2 mm 4 mps 741 mmHg 80%
    11:00 +26°C° 0.8 mm 4 mps 742 mmHg 77%
    12:00 +27°C° 0.8 mm 4 mps 742 mmHg 75%
    13:00 +27°C° 0.8 mm 4 mps 742 mmHg 72%
    14:00 +27°C° 1.2 mm 4 mps 742 mmHg 73%
    15:00 +27°C° 1.2 mm 5 mps 742 mmHg 74%
    16:00 +27°C° 1.2 mm 5 mps 742 mmHg 75%
    17:00 +26°C° 0.8 mm 5 mps 743 mmHg 79%
    18:00 +24°C° 0.8 mm 6 mps 743 mmHg 83%
    19:00 +23°C° 0.8 mm 6 mps 743 mmHg 87%
    20:00 +22°C° 2 mm 6 mps 743 mmHg 89%
    21:00 +22°C° 2 mm 6 mps 744 mmHg 92%
    22:00 +21°C° 2 mm 5 mps 744 mmHg 94%
    23:00 +21°C° 0.9 mm 5 mps 744 mmHg 94%

    Day after tomorrow, 19 July, Thursday

    Time Temperature Precipitation Wind Pressure Humidity
    00:00 +20°C° 0.9 mm 5 mps 744 mmHg 95%
    01:00 +20°C° 0.9 mm 5 mps 744 mmHg 96%
    02:00 +20°C° 0.3 mm 5 mps 744 mmHg 96%
    03:00 +20°C° 0.3 mm 4 mps 744 mmHg 96%
    04:00 +19°C° 0.3 mm 4 mps 745 mmHg 96%
    05:00 +20°C° 0.2 mm 4 mps 745 mmHg 94%
    06:00 +20°C° 0.2 mm 4 mps 745 mmHg 93%
    07:00 +20°C° 0.2 mm 4 mps 745 mmHg 92%
    08:00 +22°C° 0.1 mm 4 mps 745 mmHg 86%
    09:00 +23°C° 0.1 mm 4 mps 745 mmHg 80%
    10:00 +25°C° 0.1 mm 3 mps 746 mmHg 75%
    11:00 +26°C° 0.2 mm 3 mps 746 mmHg 69%
    12:00 +27°C° 0.2 mm 3 mps 746 mmHg 64%
    13:00 +28°C° 0.2 mm 3 mps 746 mmHg 59%
    14:00 +28°C° 0.5 mm 4 mps 746 mmHg 61%
    15:00 +28°C° 0.5 mm 4 mps 746 mmHg 63%
    16:00 +27°C° 0.5 mm 5 mps 746 mmHg 65%
    17:00 +26°C° 0.4 mm 5 mps 746 mmHg 71%
    18:00 +25°C° 0.4 mm 4 mps 746 mmHg 76%
    19:00 +23°C° 0.4 mm 4 mps 746 mmHg 81%
    20:00 +22°C° 0.1 mm 4 mps 746 mmHg 84%
    21:00 +21°C° 0.1 mm 4 mps 746 mmHg 88%
    22:00 +20°C° 0.1 mm 3 mps 747 mmHg 91%
    23:00 +19°C° 0 mm 3 mps 747 mmHg 92%

    20 July, Friday

    Time Temperature Precipitation Wind Pressure Humidity
    00:00 +19°C° 0 mm 3 mps 747 mmHg 93%
    01:00 +18°C° 0 mm 3 mps 747 mmHg 94%
    02:00 +18°C° 0 mm 3 mps 747 mmHg 95%
    03:00 +18°C° 0 mm 3 mps 747 mmHg 95%
    04:00 +18°C° 0 mm 3 mps 747 mmHg 96%
    05:00 +18°C° 0 mm 3 mps 747 mmHg 93%
    06:00 +19°C° 0 mm 3 mps 747 mmHg 90%
    07:00 +20°C° 0 mm 3 mps 747 mmHg 87%
    08:00 +21°C° 0 mm 4 mps 747 mmHg 82%
    09:00 +22°C° 0 mm 4 mps 747 mmHg 76%
    10:00 +23°C° 0 mm 4 mps 747 mmHg 71%
    11:00 +25°C° 0.1 mm 5 mps 747 mmHg 69%
    12:00 +25°C° 0.1 mm 5 mps 747 mmHg 67%
    13:00 +26°C° 0.1 mm 5 mps 747 mmHg 65%
    14:00 +26°C° 0.1 mm 5 mps 746 mmHg 65%
    15:00 +26°C° 0.1 mm 5 mps 746 mmHg 65%
    16:00 +26°C° 0.1 mm 5 mps 746 mmHg 66%
    17:00 +25°C° 0.1 mm 5 mps 746 mmHg 70%
    18:00 +23°C° 0.1 mm 4 mps 746 mmHg 75%
    19:00 +22°C° 0.1 mm 4 mps 746 mmHg 79%
    20:00 +21°C° 0 mm 3 mps 746 mmHg 82%
    21:00 +20°C° 0 mm 3 mps 746 mmHg 85%
    22:00 +19°C° 0 mm 3 mps 746 mmHg 88%
    23:00 +18°C° 0 mm 3 mps 746 mmHg 90%

    21 July, Saturday

    Time Temperature Precipitation Wind Pressure Humidity
    00:00 +18°C° 0 mm 3 mps 746 mmHg 91%
    01:00 +17°C° 0 mm 2 mps 746 mmHg 93%
    02:00 +17°C° 0 mm 2 mps 746 mmHg 93%
    03:00 +16°C° 0 mm 2 mps 746 mmHg 93%
    04:00 +16°C° 0 mm 2 mps 746 mmHg 93%
    05:00 +17°C° 0 mm 2 mps 746 mmHg 88%
    06:00 +18°C° 0 mm 3 mps 746 mmHg 83%
    07:00 +19°C° 0 mm 3 mps 746 mmHg 78%
    08:00 +21°C° 0 mm 3 mps 746 mmHg 72%
    09:00 +22°C° 0 mm 3 mps 746 mmHg 66%
    10:00 +25°C° 0 mm 4 mps 746 mmHg 60%
    11:00 +26°C° 0 mm 4 mps 745 mmHg 58%
    12:00 +26°C° 0 mm 4 mps 745 mmHg 56%
    13:00 +27°C° 0 mm 4 mps 745 mmHg 54%
    14:00 +27°C° 0 mm 4 mps 745 mmHg 54%
    15:00 +27°C° 0 mm 4 mps 745 mmHg 55%
    16:00 +27°C° 0 mm 4 mps 744 mmHg 55%
    17:00 +26°C° 0 mm 3 mps 744 mmHg 61%
    18:00 +25°C° 0 mm 3 mps 744 mmHg 66%
    19:00 +24°C° 0 mm 2 mps 744 mmHg 72%
    20:00 +23°C° 0 mm 2 mps 745 mmHg 75%
    21:00 +20°C° 0 mm 2 mps 745 mmHg 78%
    22:00 +19°C° 0 mm 2 mps 745 mmHg 81%
    23:00 +19°C° 0 mm 2 mps 745 mmHg 83%

    22 July, Sunday

    Time Temperature Precipitation Wind Pressure Humidity
    00:00 +18°C° 0 mm 2 mps 745 mmHg 85%
    01:00 +17°C° 0 mm 2 mps 745 mmHg 87%
    02:00 +17°C° 0 mm 2 mps 745 mmHg 88%
    03:00 +16°C° 0 mm 2 mps 745 mmHg 88%
    04:00 +16°C° 0 mm 2 mps 745 mmHg 89%
    05:00 +17°C° 0 mm 2 mps 745 mmHg 84%
    06:00 +18°C° 0 mm 2 mps 745 mmHg 79%
    07:00 +19°C° 0 mm 2 mps 746 mmHg 74%
    08:00 +20°C° 0 mm 3 mps 746 mmHg 70%
    09:00 +22°C° 0 mm 3 mps 746 mmHg 66%
    10:00 +23°C° 0 mm 4 mps 746 mmHg 63%
    11:00 +23°C° 0 mm 4 mps 746 mmHg 60%
    12:00 +25°C° 0 mm 4 mps 746 mmHg 57%
    13:00 +26°C° 0 mm 4 mps 746 mmHg 55%
    14:00 +26°C° 0 mm 4 mps 746 mmHg 54%
    15:00 +26°C° 0 mm 4 mps 746 mmHg 54%
    16:00 +26°C° 0 mm 4 mps 746 mmHg 53%
    17:00 +25°C° 0 mm 4 mps 746 mmHg 59%
    18:00 +24°C° 0 mm 3 mps 746 mmHg 64%
    19:00 +21°C° 0 mm 3 mps 746 mmHg 70%
    20:00 +20°C° 0 mm 3 mps 747 mmHg 73%
    21:00 +19°C° 0 mm 3 mps 747 mmHg 76%
    22:00 +18°C° 0 mm 2 mps 747 mmHg 79%
    23:00 +18°C° 0 mm 2 mps 747 mmHg 81%
    Show more